[[{"header":{"parameterUnit":"m.s-1","parameterCategory":1,"la1":30.2992,"la2":30.254,"lo1":-89.0895,"lo2":-89.0443,"dy":0.0025,"dx":0.0025,"nx":19,"ny":19,"refTime":"2026-05-21T09:00:00:Z","depth":0,"parameterNumber":2,"parameterNumberName":"U-component_of_WINDS"},"data":[0,0,0,-3.8429,-3.8431,-3.8519,-3.8519,-3.8634,-3.8635,0,0,0,0,0,0,0,0,0,0,0,-3.8406,-3.8407,-3.8429,-3.8431,-3.8519,-3.8519,-3.8634,-3.8635,0,0,0,0,0,0,0,0,0,0,0,-3.8405,-3.8406,-3.8408,-3.8432,-3.8519,-3.8519,-3.8633,-3.8566,0,0,0,0,0,0,0,0,0,0,-3.8481,-3.8462,-3.8406,-3.8408,-3.8432,-3.8519,-3.8519,-3.8563,-3.857,-3.8596,0,-3.862,0,-3.8629,-3.8643,-3.8643,0,0,0,-3.8429,-3.8455,-3.8477,-3.8408,-3.8433,-3.8518,-3.8479,-3.8567,-3.8576,-3.8606,-3.8621,-3.8625,-3.8631,-3.8644,-3.8644,-3.8798,-3.8799,0,0,-3.8425,-3.8423,-3.8471,-3.8483,-3.847,-3.8476,-3.8481,-3.8572,-3.8589,-3.8622,-3.8628,-3.8633,-3.8645,-3.8645,-3.8797,-3.8798,0,0,0,-3.8412,-3.8419,-3.8439,-3.8478,-3.8493,-3.8479,-3.8485,-3.8584,-3.8591,-3.8629,-3.8634,-3.8645,-3.8647,-3.8797,-3.8798,-3.8834,0,0,0,-3.8409,-3.8412,-3.8437,-3.8436,-3.8492,-3.854,-3.8495,-3.8585,-3.8595,-3.8634,-3.8645,-3.8648,-3.8796,-3.8797,-3.8832,-3.8851,0,0,0,-3.8399,-3.8411,-3.8424,-3.8436,-3.8474,-3.8539,-3.855,-3.8587,-3.8598,-3.8643,-3.8648,-3.8795,-3.8797,-3.8829,-3.8847,-3.889,0,0,0,-3.8388,-3.8456,-3.8425,-3.8504,-3.8473,-3.8562,-3.855,-3.8616,-3.866,-3.8646,-3.8796,-3.8798,-3.8828,-3.8844,-3.8887,-3.8923,-3.8939,0,0,-3.8473,-3.8466,-3.8513,-3.8487,-3.8581,-3.8549,-3.8648,-3.8689,-3.8696,-3.8764,-3.8767,-3.8833,-3.8847,-3.8889,-3.9032,-3.9045,0,0,0,-3.8539,-3.8572,-3.8597,-3.8639,-3.8673,-3.8703,-3.873,-3.8745,-3.8803,-3.8731,-3.8861,-3.887,-3.8894,-3.8912,-3.8922,-3.8943,-3.8806,-3.8806,-3.8806,-3.8654,-3.8659,-3.8735,-3.8751,-3.8792,-3.8819,-3.8852,-3.8877,-3.887,-3.8901,-3.892,-3.9007,-3.9027,-3.9035,-3.9056,-3.8942,-3.8943,-3.8943,-3.8943,-3.8777,-3.8823,-3.8813,-3.8884,-3.8889,-3.8948,-3.8977,-3.8971,-3.9026,-3.8993,-3.9015,-3.8976,-3.9048,-3.9067,-3.8946,-3.8945,-3.8945,-3.8945,-3.8944,-3.885,-3.8873,-3.8892,-3.8952,-3.8998,-3.9012,-3.9065,-3.9069,-3.9072,-3.9094,-3.9113,-3.9113,-3.911,-3.9104,-3.9104,-3.9105,-3.9105,-3.9105,-3.9105,-3.8917,-3.8938,-3.8982,-3.9025,-3.9051,-3.9087,-3.9117,-3.9143,-3.9173,-3.9171,-3.9171,-3.916,-3.9056,-3.9028,-3.911,-3.9109,-3.9108,-3.9108,-3.9108,-3.9035,-3.9009,-3.9078,-3.9105,-3.9155,-3.92,-3.9204,-3.9258,-3.9281,-3.9306,-3.9292,-3.9215,-3.9208,-3.92,-3.9176,-3.9292,-3.9292,-3.9292,-3.9292,-3.9094,-3.9092,-3.9163,-3.9206,-3.9248,-3.926,-3.9336,-3.936,-3.9381,-3.9395,-3.938,-3.935,-3.9342,-3.934,-3.9328,-3.9306,-3.9452,-3.9452,-3.9452,-3.9166,-3.9168,-3.9232,-3.9253,-3.9292,-3.9326,-3.9398,-3.9447,-3.9465,-3.9459,-3.9406,-3.9399,-3.9351,-3.9336,-3.9325,-3.9307,-3.9267,0,0]},{"header":{"parameterUnit":"m.s-1","parameterCategory":1,"la1":30.2992,"la2":30.254,"lo1":-89.0895,"lo2":-89.0443,"dy":0.0025,"dx":0.0025,"nx":19,"ny":19,"refTime":"2026-05-21T09:00:00:Z","depth":0,"parameterNumber":3,"parameterNumberName":"V-component_of_WINDS"},"data":[0,0,0,4.1581,4.1583,4.1684,4.1684,4.1818,4.1819,0,0,0,0,0,0,0,0,0,0,0,4.1555,4.1556,4.1581,4.1583,4.1684,4.1684,4.1817,4.1819,0,0,0,0,0,0,0,0,0,0,0,4.1554,4.1556,4.1557,4.1584,4.1684,4.1684,4.1817,4.1739,0,0,0,0,0,0,0,0,0,0,4.1641,4.1621,4.1555,4.1557,4.1584,4.1683,4.1684,4.1735,4.1744,4.1775,0,4.1804,0,4.1814,4.1828,4.1829,0,0,0,4.158,4.1614,4.1637,4.1557,4.1585,4.1683,4.1637,4.174,4.175,4.1786,4.1805,4.181,4.1816,4.1829,4.183,4.2019,4.202,0,0,4.1574,4.1575,4.1631,4.1644,4.163,4.1634,4.1641,4.1746,4.1767,4.1806,4.1813,4.1818,4.183,4.1831,4.2018,4.202,0,0,0,4.1561,4.1571,4.1592,4.1639,4.1656,4.1637,4.1644,4.1762,4.1769,4.1815,4.182,4.1831,4.1833,4.2017,4.2019,4.2072,0,0,0,4.1557,4.1563,4.159,4.1591,4.1655,4.1711,4.1658,4.1762,4.1773,4.1819,4.1831,4.1834,4.2016,4.2018,4.2068,4.2098,0,0,0,4.1547,4.1562,4.1578,4.1591,4.1635,4.1709,4.1722,4.1764,4.1777,4.1829,4.1834,4.2015,4.2018,4.2065,4.2092,4.2149,0,0,0,4.1536,4.1623,4.1579,4.1678,4.1634,4.1741,4.1721,4.1801,4.1852,4.1832,4.2016,4.2019,4.2064,4.2088,4.2145,4.2198,4.222,0,0,4.1647,4.1637,4.1695,4.1658,4.1774,4.1726,4.1849,4.1895,4.1898,4.1978,4.1983,4.207,4.2092,4.2148,4.2339,4.2357,0,0,0,4.173,4.1772,4.1802,4.1852,4.1889,4.1923,4.195,4.1966,4.2035,4.194,4.2105,4.2118,4.2151,4.2176,4.2191,4.222,4.203,4.203,4.2029,4.1888,4.1889,4.1985,4.1998,4.2045,4.2072,4.2111,4.2138,4.2123,4.2162,4.2187,4.2303,4.2332,4.2343,4.2374,4.2213,4.2213,4.2213,4.2214,4.2051,4.2112,4.2091,4.2177,4.2176,4.2248,4.2277,4.2264,4.2331,4.2284,4.2313,4.2264,4.2363,4.2389,4.2218,4.2217,4.2216,4.2216,4.2216,4.2157,4.2186,4.2205,4.2276,4.2331,4.2339,4.2405,4.2401,4.2398,4.2427,4.2453,4.2452,4.2452,4.2439,4.244,4.244,4.244,4.2441,4.2441,4.226,4.2279,4.2336,4.2382,4.2413,4.2454,4.248,4.2511,4.2543,4.2535,4.2536,4.2518,4.2372,4.2336,4.2447,4.2446,4.2445,4.2445,4.2444,4.2429,4.239,4.2477,4.2508,4.2562,4.2617,4.2611,4.2673,4.2697,4.2729,4.2705,4.2597,4.2586,4.2574,4.2545,4.2704,4.2704,4.2704,4.2704,4.2519,4.2513,4.2601,4.2652,4.27,4.2703,4.2801,4.2822,4.2838,4.2853,4.2829,4.2788,4.2776,4.2773,4.2757,4.273,4.2932,4.2932,4.2932,4.2624,4.2622,4.2707,4.2722,4.2764,4.28,4.2892,4.295,4.2959,4.2942,4.2865,4.2855,4.279,4.2769,4.2752,4.2727,4.2677,0,0]}]]